Location: *
(40.9167°N, 9.5000°E)
Time: 06:32:14
(UTC+00:00)

Daily predictions for brighter satellites

Satellite Brightness Start Highest point End
(mag) Time Altitude Azimuth Time Altitude Azimuth Time Altitude Azimuth
ATLAS 2AS CENTAUR R/B 3.3 18:10:28 10° NNW 18:17:47 48° NE 18:24:28 10° ESE
ATLAS 5 CENTAUR R/B 1.8 18:15:39 10° S 18:19:29 42° ESE 18:23:40 10° NE
SeaSat 1 2.5 18:16:04 10° NNE 18:21:02 87° ESE 18:25:58 10° SSW
Cosmos 1603 4.4 18:16:20 10° SW 18:21:53 60° WNW 18:27:26 10° NNE
H-2A R/B 2.5 18:17:39 10° SE 18:22:29 41° ENE 18:27:12 10° N
HJ-1C 3.3 18:21:53 10° SSE 18:25:13 71° ENE 18:28:35 10° N
COSMOS 2455 4.1 18:20:26 10° N 18:25:26 26° NE 18:30:23 10° ESE
SL-8 R/B 4.5 18:22:08 10° WNW 18:26:45 49° SW 18:31:20 10° SE
Abrixas rocket 3.9 18:24:57 10° NW 18:27:20 22° N 18:29:43 10° ENE
Cosmos 1140 Rocket 4.1 18:24:28 10° SSE 18:29:08 35° E 18:33:47 10° NE
Ariane Rocket 3.1 18:26:46 10° SSE 18:31:42 57° ENE 18:36:40 10° N
Cosmos 1943 Rocket 3.6 18:29:54 10° NW 18:35:04 40° WSW 18:40:15 10° S
Meteor 1-16 Rocket 4.1 18:31:09 10° S 18:36:32 78° E 18:42:07 10° NNE
YAOGAN 1 4.3 18:32:56 10° SSW 18:36:55 36° W 18:40:57 10° NNW
Cosmos 614 Rocket 3.9 18:31:44 10° S 18:36:55 71° ESE 18:42:07 10° NNE
CZ-2C R/B 3.1 18:32:39 10° SE 18:37:19 49° ENE 18:41:54 10° N
APEX 4.5 18:34:00 10° NNW 18:40:11 52° ENE 18:45:09 10° SE
STARLINK-29 3.3 18:38:49 10° WSW 18:41:59 68° NW 18:45:11 10° NE
Cosmos 1190 Rocket 4.1 18:37:49 10° S 18:42:58 55° ESE 18:48:08 10° NNE
SJ-6B 3.5 18:40:03 10° SE 18:43:52 39° ENE 18:47:45 10° N
Aureole 1 Rocket 4.1 18:36:21 10° S 18:43:59 74° ESE 18:50:00 10° NNE
Cosmos 1300 4.2 18:43:12 12° SE 18:45:25 18° E 18:48:04 10° NE
IRIDIUM 104 4.4 18:42:24 10° N 18:47:39 87° W 18:52:51 10° S
ARGOS Delta rocket 4.3 18:44:52 10° S 18:50:10 77° W 18:55:40 10° NNW
Cosmos 2369 Rocket 3.6 18:47:06 10° NW 18:52:21 39° WSW 18:57:32 10° S
SL-24 R/B 4.3 18:50:05 10° NNE 18:53:40 34° E 18:57:01 10° SSE
CZ-2C R/B 4.1 18:52:11 10° NNE 18:56:38 42° E 19:00:58 10° S
Cosmos 2058 Rocket 3.2 18:53:17 10° S 18:57:40 53° E 19:02:04 10° NNE
Hubble Space Telescope 2.8 18:57:13 10° SSW 18:59:18 14° S 19:00:38 12° SSE
Cosmos 1726 Rocket 3.6 18:55:54 10° S 19:00:19 89° WNW 19:04:48 10° N
SL-08 RB Rocket 3.9 18:56:24 10° SSE 19:00:50 54° ENE 19:05:21 10° N
STARLINK-1228 4.0 18:58:26 10° NNW 19:00:55 27° NNE 19:02:04 20° ENE
Cosmos 1461 3.2 19:00:22 10° NNW 19:04:53 61° NE 19:08:01 20° SE
Cosmos 1726 4.1 19:01:46 10° SW 19:05:08 32° WNW 19:08:32 10° NNW
SL-4 R/B 4.0 19:04:02 10° WNW 19:06:37 20° NNW 19:09:13 10° NNE
Cosmos 921 Rocket 3.3 19:03:24 10° N 19:07:26 44° ENE 19:09:43 22° SE
Cosmos 1703 3.4 19:03:52 10° N 19:07:50 75° W 19:11:47 10° S
DMSP B5D2-2 4.4 19:02:51 10° NNE 19:07:50 43° E 19:12:49 10° S
Cosmos 407 Rocket 3.7 19:03:27 10° SSW 19:08:35 73° WNW 19:13:43 10° NNE
Meteor 2-17 Rocket 4.4 19:02:28 10° N 19:08:39 76° E 19:14:48 10° SSE
Cosmos 2341 Rocket 4.4 19:02:40 10° N 19:08:43 43° ENE 19:13:22 17° SE
Cosmos 1908 3.6 19:04:58 10° SSW 19:08:48 65° W 19:12:41 10° N
Cosmos 1340 Rocket 2.7 19:05:13 10° S 19:09:15 79° E 19:13:17 10° NNE
FREGAT/IRIS 2.9 19:07:05 10° S 19:09:45 56° W 19:12:26 10° NNW
Cosmos 2184 Rocket 4.4 19:04:15 10° NNW 19:10:28 67° W 19:16:35 10° S
Cosmos 1825 Rocket 4.4 19:06:55 10° NNW 19:11:10 52° W 19:15:22 10° S
Cosmos 2228 3.8 19:07:03 10° SSW 19:11:16 55° W 19:15:32 10° N
Cosmos 676 Rocket 4.0 19:06:59 10° S 19:12:10 60° ESE 19:17:21 10° NNE
STARLINK-1201 4.4 19:10:31 10° NNW 19:13:23 27° NNE 19:14:34 22° ENE
Cosmos 1656 Rocket 4.3 19:08:45 10° NNW 19:14:15 56° WSW 19:19:39 10° S
Cosmos 1328 4.2 19:10:34 10° NNW 19:14:32 65° W 19:18:29 10° S
ATLAS 5 CENTAUR R/B 4.2 19:11:28 10° S 19:16:09 18° SSE 19:18:54 17° SE
MOS 1 4.4 19:11:10 10° S 19:16:49 77° WSW 19:22:30 10° NNW
MetOp-A 4.2 19:13:31 16° SSE 19:17:43 60° ENE 19:22:59 10° N
Resurs 01 Rocket 2.4 19:17:44 27° ESE 19:19:13 34° ENE 19:23:13 10° N
Cosmos 2058 4.4 19:18:20 10° NNE 19:21:10 19° ENE 19:21:10 19° ENE
H-2A R/B 4.3 19:19:07 10° WSW 19:21:35 11° SW 19:23:19 10° SW
Nadezhda 1 Rocket 4.3 19:17:03 10° SSW 19:23:25 71° W 19:29:46 10° N
MOS 1 Rocket 3.7 19:19:07 10° NNE 19:24:28 58° E 19:29:48 10° S
BREEZE M DEB (TANK) 2.4 19:22:06 10° SW 19:24:52 76° SE 19:31:55 10° ENE
Cosmos 1812 Rocket 4.4 19:25:20 28° E 19:25:20 28° E 19:28:58 10° NNE
CZ-2C R/B 2.6 19:20:41 10° NNE 19:25:46 54° E 19:30:52 10° S
SPOT 3 Rocket 3.5 19:22:44 17° SSE 19:26:48 77° ENE 19:32:00 10° N
ARGOS 3.6 19:22:58 10° S 19:28:17 61° W 19:33:36 10° NNW
Cosmos 962 Rocket 4.4 19:23:30 10° N 19:29:38 68° E 19:34:09 19° SSE
GEOS 3 Rocket 4.3 19:27:22 14° SSE 19:31:34 49° WSW 19:36:37 10° NW
SL-8 Rocket 4.3 19:26:10 10° N 19:32:16 48° ENE 19:35:13 29° SE
Iridium 2 4.4 19:33:27 35° ENE 19:33:27 35° ENE 19:36:36 10° NNE
Cosmos 2154 Rocket 4.3 19:27:12 10° NNW 19:33:30 70° W 19:39:46 10° S
Cosmos 2181 Rocket 4.1 19:28:01 12° SSE 19:33:42 54° E 19:39:40 10° NNE
Cosmos 1954 Rocket 3.9 19:28:31 10° SSW 19:33:46 90° ESE 19:39:01 10° NNE
USA 186 3.8 19:31:07 10° SSW 19:34:01 28° W 19:36:49 10° NW
NOSS 3-4 (A) 4.1 19:29:36 10° NW 19:36:42 69° WSW 19:42:33 19° SSE
NOSS 3-4 (C) 4.1 19:29:42 10° NW 19:36:49 70° WSW 19:42:37 19° SSE
STARLINK-67 3.4 19:37:23 10° WNW 19:39:24 45° W 19:39:24 45° W
Cosmos 1741 Rocket 4.4 19:41:05 38° ESE 19:41:47 40° ESE 19:46:44 10° NE
BREEZE-M DEB (TANK) 3.1 19:40:13 10° SW 19:45:56 61° SSE 19:45:56 61° SSE
Cosmos 2366 rocket 4.2 19:40:27 10° N 19:46:23 48° ENE 19:48:12 37° ESE
Cosmos 1076 Rocket 4.1 19:42:35 10° N 19:46:20 38° ENE 19:46:20 38° ENE
Cosmos 1763 Rocket 4.3 19:46:29 10° N 19:51:08 33° ENE 19:51:29 32° ENE
STARLINK-1209 3.7 19:51:58 10° NW 19:54:16 48° WNW 19:54:16 48° WNW
STARLINK-1234 3.6 19:52:26 10° NW 19:54:53 51° NW 19:54:53 51° NW
STARLINK-1233 3.8 19:54:16 10° NW 19:56:39 46° NNW 19:56:39 46° NNW
STARLINK-1212 3.9 19:54:44 10° NW 19:57:05 45° NNW 19:57:05 45° NNW
STARLINK-1105 3.9 19:55:10 10° NW 19:57:31 45° NNW 19:57:31 45° NNW
STARLINK-1206 3.9 19:55:39 10° NW 19:57:55 44° NW 19:57:55 44° NW
STARLINK-1247 4.0 19:56:05 10° NW 19:58:22 43° NW 19:58:22 43° NW
STARLINK-1227 4.0 19:56:29 10° NW 19:58:47 44° NW 19:58:47 44° NW
Iridium 4 Rocket 3.8 19:56:06 10° N 19:59:05 37° NE 19:59:05 37° NE
STARLINK-1218 4.0 19:57:00 10° NW 19:59:14 42° NW 19:59:14 42° NW
STARLINK-1226 4.0 19:57:25 10° NW 19:59:40 42° NW 19:59:40 42° NW
STARLINK-1254 4.0 19:57:51 10° NW 20:00:06 43° NW 20:00:06 43° NW
USA 234 3.2 19:54:40 10° NE 20:01:05 56° SE 20:07:27 10° SSW
Cosmos 1980 Rocket 4.2 19:58:41 10° NNE 20:01:18 13° NE 20:02:02 13° NE
STARLINK-1215 4.1 19:58:21 10° NW 20:00:32 41° NW 20:00:32 41° NW
STARLINK-1231 4.1 19:58:48 10° NW 20:00:58 41° NW 20:00:58 41° NW
H-2A R/B 4.2 19:57:53 10° SSW 20:02:00 24° W 20:06:03 10° NW
STARLINK-1232 4.2 19:59:42 10° NW 20:01:50 40° NW 20:01:50 40° NW
Abrixas rocket 3.7 20:00:19 10° WNW 20:02:08 33° NW 20:02:08 33° NW
STARLINK-1217 4.2 20:00:09 10° NW 20:02:17 39° NW 20:02:17 39° NW
Cosmos 1892 3.9 19:59:46 10° N 20:02:13 32° NNE 20:02:13 32° NNE
STARLINK-1208 4.2 20:00:34 10° NW 20:02:43 40° NW 20:02:43 40° NW
STARLINK-1229 4.3 20:01:02 10° NW 20:03:07 38° NW 20:03:07 38° NW
ATLAS 5 CENTAUR R/B 4.0 20:00:58 10° W 20:04:19 22° NW 20:07:59 10° NNE
STARLINK-1271 4.3 20:01:30 10° NW 20:03:35 38° NW 20:03:35 38° NW
STARLINK-1270 4.3 20:01:58 10° NW 20:04:01 37° NW 20:04:01 37° NW
STARLINK-1154 4.3 20:02:25 10° NW 20:04:27 37° NW 20:04:27 37° NW
STARLINK-1197 4.4 20:03:18 10° NW 20:05:19 36° NW 20:05:19 36° NW
STARLINK-1189 4.4 20:03:43 10° NW 20:05:42 36° NW 20:05:42 36° NW
STARLINK-1138 4.4 20:03:00 10° NW 20:06:53 40° NNE 20:06:53 40° NNE
STARLINK-1198 4.5 20:04:13 10° NW 20:06:11 35° NW 20:06:11 35° NW
STARLINK-1188 4.5 20:04:38 10° NW 20:06:35 35° NW 20:06:35 35° NW
STARLINK-1235 4.5 20:05:19 10° NW 20:07:19 35° WNW 20:07:19 35° WNW
ATLAS 2AS CENTAUR R/B 3.8 20:01:52 10° NW 20:08:35 39° WSW 20:13:00 18° S
STARLINK-1187 4.5 20:05:42 10° NW 20:07:42 35° WNW 20:07:42 35° WNW
COSMOS 2455 3.2 20:05:50 10° NW 20:11:45 59° WSW 20:13:57 37° S
STARLINK-1143 4.4 20:07:58 10° NW 20:11:40 43° NNE 20:11:40 43° NNE
ERBS 4.1 20:12:24 10° NNW 20:14:20 28° N 20:14:20 28° N
STARLINK-1241 4.4 20:12:57 10° NW 20:16:29 44° N 20:16:29 44° N
STARLINK-1239 4.5 20:17:54 10° NW 20:21:15 45° N 20:21:15 45° N
Spot 2 Rocket 3.3 20:22:15 79° E 20:22:18 79° ENE 20:27:25 10° N
ATLAS CENTAUR R/B 3.7 20:21:00 10° N 20:22:10 14° NNE 20:22:10 14° NNE
Cosmos 1850 Rocket 4.0 20:24:21 50° SW 20:25:44 78° WNW 20:30:56 10° NNE
Terra 3.6 20:29:52 21° NE 20:29:52 21° NE 20:32:11 10° NNE
SPOT 5 4.4 20:31:40 23° NNE 20:31:40 23° NNE 20:33:41 10° N
Cosmos 2082 Rocket 4.4 20:34:09 12° NE 20:34:09 12° NE 20:34:42 10° NE
Cosmos 841 Rocket 4.4 20:25:27 10° N 20:29:32 37° NE 20:29:32 37° NE
In-Cosmos 22 Rocket 4.5 20:25:43 10° NNW 20:31:31 67° W 20:32:45 53° SSW
Meteor 2-10 Rocket 4.1 20:33:51 47° NE 20:33:51 47° NE 20:37:50 10° NNE
MetOp-B 4.1 20:32:14 68° SW 20:32:43 73° WSW 20:38:06 10° NNW
Cosmos 1833 Rocket 3.9 20:39:02 29° NE 20:39:02 29° NE 20:41:47 10° NNE
SL-08 R/B 4.3 20:30:14 10° N 20:36:25 80° E 20:36:44 77° ESE
Cosmos 468 Rocket 4.2 20:37:49 10° NNW 20:42:31 66° WNW 20:42:31 66° WNW
ERS-1 Rocket 3.7 20:47:01 46° NNE 20:47:01 46° NNE 20:50:40 10° N
RESURS DK-1 4.2 20:48:13 10° NNW 20:50:15 27° NNW 20:50:15 27° NNW
Resurs 01 Rocket 3.7 20:55:17 21° WSW 20:55:46 21° W 20:59:09 10° NW
COSMOS 2406 3.7 20:54:52 47° WSW 20:56:11 58° WNW 21:01:50 10° NNE
CZ-4C R/B 3.6 20:54:14 10° NNW 21:01:04 43° NE 21:01:49 42° ENE
Cosmos 1697 Rocket 3.4 21:10:20 10° NNW 21:14:29 50° NNW 21:14:29 50° NNW
Cosmos 2369 4.4 21:10:29 10° NNW 21:14:34 49° NNW 21:14:34 49° NNW
SL-16 R/B 4.2 21:33:25 10° N 21:36:11 20° NNE 21:36:11 20° NNE
USA 234 4.0 21:37:47 10° NE 21:43:59 48° NNW 21:50:12 10° WSW
Cosmos 2322 Rocket 4.3 21:40:31 10° N 21:43:04 19° NNE 21:43:04 19° NNE
Cosmos 1980 Rocket 3.5 21:40:37 10° NNW 21:43:48 35° NNW 21:43:48 35° NNW
Terra 4.3 22:08:46 18° NW 22:08:46 18° NW 22:10:10 10° NNW
Mayak 2.0 22:04:56 10° N 22:04:58 10° N 22:04:58 10° N
Cosmos 2082 Rocket 4.0 22:15:56 27° NNW 22:15:56 27° NNW 22:19:00 10° N
Cosmos 2344 4.4 22:28:16 10° NW 22:38:25 83° WSW 22:38:35 83° SW
CZ-4C R/B 4.0 22:42:40 10° NW 22:47:00 36° WNW 22:47:00 36° WNW
Cosmos 2360 Rocket 4.4 23:17:30 10° NNW 23:19:17 21° NNW 23:19:17 21° NNW
Cosmos 2333 Rocket 4.3 23:40:10 10° N 23:42:25 22° N 23:42:25 22° N
SL-16 R/B 4.4 23:48:42 23° NE 23:48:42 23° NE 23:52:54 10° NNE
